Flag for Germany Weather past 2 weeks in Laatzen, Lower Saxony, Germany

Now
80 °F

Passing clouds.


Feels Like: 80 °F
Forecast: 63 / 89 °F
Wind: 8 mph from East

Location: Hannover

Current Time: Jul 1, 2015 at 2:13:09 PM

Latest Report: Jul 1, 2015 at 2:00 PM


Visibility: 28 mi

Pressure: 30.16 "Hg

Humidity: 39%

Dew point: 53 °F

Location of LaatzenLocation

Historic Weather in Laatzen — Graph

°F

Laatzen temperature yesterday

Maximum temperature yesterday: 78 °F (at 6:00 PM)
Minimum temperature yesterday: 55 °F (at 4:00 AM)
Average temperature yesterday: 67 °F

Past Weeks' High & Low Weather Summary

 TemperatureHumidityPressure
High80 °F (Jul 1, 1:00 PM)99% (Jun 23, 1:00 AM)30.30 "Hg (Jun 23, 1:00 AM)
Low40 °F (Jun 17, 3:00 AM)31% (Jun 16, 6:00 PM)29.66 "Hg (Jun 23, 1:00 AM)
Average60 °F72%30.05 "Hg
* Reported Jun 16 1:00 PM — Jul 1 1:00 PM, Laatzen, Weather by CustomWeather, © 2015

Note: Actual official high and low records may vary slightly from our data, if they occured in-between our weather recording intervals... More about our weather records

Advertising

Laatzen weather history for previous 24 hours

 ConditionsComfort  
Time TempWeatherWind HumidityBarometerVisibility
1:00 PM
Wed, Jul 1
80 °FPassing clouds.8 mph38%30.17 "Hg28 mi
12:00 PM78 °FPassing clouds.7 mph42%30.18 "Hg28 mi
10:00 AM72 °FPassing clouds.5 mph52%30.19 "Hg22 mi
9:00 AM68 °FPassing clouds.3 mph57%30.20 "Hg22 mi
8:00 AM65 °FPassing clouds.3 mph66%30.20 "Hg22 mi
7:00 AM61 °FSunny.5 mph74%30.20 "Hg22 mi
6:00 AM58 °FSunny.3 mph83%30.20 "Hg22 mi
4:00 AM59 °FClear.5 mph82%30.19 "Hg25 mi
3:00 AM60 °FClear.5 mph79%30.19 "Hg25 mi
2:00 AM59 °FClear.3 mph78%30.19 "Hg25 mi
1:00 AM61 °FClear.3 mph73%30.19 "Hg31 mi
12:00 AM63 °FClear.1 mph67%30.19 "Hg31 mi
11:00 PM
Tue, Jun 30
65 °FPassing clouds.2 mph60%30.18 "Hg31 mi
10:00 PM68 °FPassing clouds.2 mph55%30.17 "Hg31 mi
9:00 PM74 °FPassing clouds.2 mph45%30.16 "Hg31 mi
8:00 PM77 °FPassing clouds.2 mph40%30.15 "Hg31 mi
7:00 PM78 °FPassing clouds.2 mph36%30.16 "Hg25 mi
6:00 PM78 °FPassing clouds.3 mph36%30.16 "Hg25 mi
4:00 PM76 °FPassing clouds.3 mph37%30.19 "Hg25 mi
3:00 PM75 °FPassing clouds.3 mph38%30.19 "Hg25 mi
2:00 PM74 °FPassing clouds.2 mph41%30.20 "Hg25 mi
Weather by CustomWeather, © 2015

See weather overviewHow to use our weather pages